Find Kosmos-1556

NORAD ID: 14979 Int'l Des: 1984-047 Owner: GUKOS Country: SU operational
MEOCIRCULAR

現在のビュー

3D地球を読み込み中...

About Kosmos-1556

Kosmos-1556 (NORAD 14979) is a satellite launched May 19, 1984 by GUKOS of SU. It operates in MEO, CIRCULAR orbit with a mass of 1300.00 kg.

次回通過

Passes for default location (London). Set your location on the main map for personalized predictions.

高度履歴

Loading altitude history...

軌道要素

1 14979U 84047C 26169.38527531 -.00000060 00000-0 00000-0 0 9998
2 14979 66.4203 329.7207 0010037 191.2333 207.4611 2.12912339327124
Epoch: Jun 18, 2026 • Age: 65 hours

現在のステータス

高度 19173.3 km
速度 3.95 km/s
衛星直下点 -45.98°S, 2.78°E
打ち上げ日 May 19, 1984
運用期間 42 years
タイプ other

技術仕様

分類 Payload
質量 1300.00 kg
乾燥質量 1200.00 kg
総質量 1300.00 kg
長さ 4.00 m
直径 1.50 m
スパン 7.80 m
形状 Cyl + Ant + 2 Pan
製造者 OAZ
バスタイプ Uragan
フェーズステータス In Orbit
所有者/国 GUKOS/SU

Most Searched